STARLINK-32723 (62449 NORAD) Tracking and Keplerian Element Data

This shows tracking and keplerian element data for the satellite.

Feedback or suggestion? Click here.




ElementValue
Catalog62449
NameSTARLINK-32723
Epoch Orbit664
Epoch Day35.17766021
Epoch Year2025
RAAN34.9319
Inclination53.1616
Eccentricity0.0001237
Argument of Perigee98.2543
Mean Anonmoly261.8602
Mean Motion15.39598655
Decay Rate1.2E-06
L11 62449U 24251T 25035.17766021 .00000120 00000+0 12989-4 0 9999
L22 62449 53.1616 34.9319 0001237 98.2543 261.8602 15.39598655 6649



Live tracking and technical data element details for STARLINK-32723 (NORAD 62449). STARLINK-32723 can be tracked NOW for your location showing map with azimuth and elevation plus other details from your city location.







IsCatalogInMostPopularTable: catalog: 62449, numindb: 12
Update: records affected: 1



GetName: 62449 STARLINK-32723

Hit Count: updated at: Mon, 19 May 2025 01:41:02 GMT